Regional Weather Roundup
Issued by NWS

Home | Current Version | Previous Version | Text Only | Print | Product List | Glossary Off
Versions: 1 2 3 4 5 6 7 8 9 10 11 12 13 14 15 16 17 18 19 20 21 22 23 24 25 26 27 28 29 30 31 32 33 34 35 36 37 38 39 40 41 42 43 44 45 46 47 48 49 50

000
ASUS43 KIND 191759
RWRIN

WEATHER ROUNDUP FOR INDIANA
NATIONAL WEATHER SERVICE INDIANAPOLIS IN
100 PM EST FRI DEC 19 2014

NOTE: "FAIR" INDICATES FEW OR NO CLOUDS BELOW 12,000 FEET WITH NO
SIGNIFICANT WEATHER AND/OR OBSTRUCTIONS TO VISIBILITY.

* - STATION DOES NOT REPORT WEATHER SUCH AS PRECIPITATION OR FOG.

+ - STATION NOT QUALITY CONTROLLED BY THE NATIONAL WEATHER SERVICE.
    USE DATA WITH CAUTION...ESPECIALLY DEWPOINT AND RELATIVE
    HUMIDITY OBSERVATIONS.

INZ001>003-010>013-019-020-191900-
NORTHWEST INDIANA

CITY           SKY/WX    TMP DP  RH WIND       PRES   REMARKS
GARY /AIRPORT/ CLOUDY    34  19  55 VRB5      30.30  WCI  30
VALPARAISO     NOT AVBL

$$

LMZ046-743>745-191900-
SOUTHERN LAKE MICHIGAN

STATION/POSITION TIME  TEMP WIND        PRES
                       AIR  DIR/SP/G
                 (UTC) (F)  (DEG/KT/KT) (MB)

$$

INZ004-005-014>016-021>024-191900-
NORTH CENTRAL INDIANA

CITY           SKY/WX    TMP DP  RH WIND       PRES   REMARKS
ELKHART        PTSUNNY   34  19  55 NW6       30.27F WCI  29
GOSHEN         SUNNY     33  20  58 N7        30.25F WCI  27
6HR MIN TEMP:  26; 6HR MAX TEMP:  33;

SOUTH BEND     CLOUDY    34  24  67 CALM      30.27F
6HR MIN TEMP:  28; 6HR MAX TEMP:  35;


$$

INZ006>009-017-018-025>027-191900-
NORTHEAST INDIANA

CITY           SKY/WX    TMP DP  RH WIND       PRES   REMARKS
ANGOLA *+      CLOUDY    28  16  59 CALM      30.24F
FORT WAYNE     PTSUNNY   32  23  69 W6        30.26F WCI  26
6HR MIN TEMP:  26; 6HR MAX TEMP:  33;


$$

INZ028-029-035-036-043>045-051>053-191900-
WEST CENTRAL INDIANA

CITY           SKY/WX    TMP DP  RH WIND       PRES   REMARKS
GREENCASTLE +  CLOUDY    30  19  64 CALM      30.29S
LAFAYETTE      CLOUDY    27  25  92 CALM      30.29F
6HR MIN TEMP:  21; 6HR MAX TEMP:  27;

TERRE HAUTE    SUNNY     33  23  66 CALM      30.30F
6HR MIN TEMP:  22; 6HR MAX TEMP:  33;


$$

INZ030>032-037>040-046>048-054>057-064-065-191900-
CENTRAL INDIANA

CITY           SKY/WX    TMP DP  RH WIND       PRES   REMARKS
ANDERSON       CLOUDY    28  21  74 CALM      30.26F
COLUMBUS       CLOUDY    28  25  86 CALM      30.29F
INDIANAPOLIS   CLOUDY    27  22  81 SW3       30.27F
6HR MIN TEMP:  19; 6HR MAX TEMP:  27;

-EAGLE CREEK   CLOUDY    28  21  75 S3        30.27F
6HR MIN TEMP:  22; 6HR MAX TEMP:  28;

KOKOMO *+      CLOUDY    28  25  86 N5        30.26F WCI  23
MT COMFORT *+  PTSUNNY   28  18  64 CALM      30.27S
SHELBYVILLE    CLOUDY    30  22  72 CALM      30.28S
6HR MIN TEMP:  21; 6HR MAX TEMP:  30;


$$

INZ033-034-041-042-049-050-058-059-191900-
EAST CENTRAL INDIANA

CITY           SKY/WX    TMP DP  RH WIND       PRES   REMARKS
MUNCIE         CLOUDY    28  23  81 NW3       30.25F
6HR MIN TEMP:  26; 6HR MAX TEMP:  29;


$$

INZ060-061-067>069-081>083-085>088-191900-
SOUTHWEST INDIANA

CITY           SKY/WX    TMP DP  RH WIND       PRES   REMARKS
EVANSVILLE     PTSUNNY   35  24  64 VRB3      30.30F
6HR MIN TEMP:  30; 6HR MAX TEMP:  37;

HUNTINGBURG *+ PTSUNNY   32  21  64 CALM      30.30F
6HR MIN TEMP:  25; 6HR MAX TEMP:  32;


$$

INZ062-063-066-070>080-084-089>092-191900-
SOUTH CENTRAL AND SOUTHEAST INDIANA

CITY           SKY/WX    TMP DP  RH WIND       PRES   REMARKS
BLOOMINGTON    PTSUNNY   32  23  69 E5        30.27F WCI  27
6HR MIN TEMP:  24; 6HR MAX TEMP:  33;

SEYMOUR +      CLOUDY    32  23  69 NE8       30.29  WCI  25

$$



USA.gov is the U.S. government's official web portal to all federal, state and local government web resources and services.